TIME,DELAY(SENSOR),PRES,T(CTD),SAL,OXYGEN,RAWTEMP,T(OPTODE),TCPHASE,FLUOR,BETA(BETA700),BETA(BETA412),BETA(BETA440),CDOM,C(CSC),ED(ED411.90),ED(ED443.80),ED(ED489.40),ED(ED554.70),LU(LU412.20),LU(LU443.80),LU(LU489.40),LU(LU555.00),COMP,TILTX,TILTX(TILTY),CHECK
1350833005,5804,495.8800048828125000,17.2957992553710940,36.4245986938476560,226.6858062744140600,193.1300048828125000,17.2906608581542970,32.2338600158691400,50,100,57,78,52,1860,2147484278,2147768658,2147558811,2147794486,2147315693,2147479113,2147709421,2148246948,3136,7,13,10230
1350833120,5803,485.6199951171875000,17.3978004455566400,36.4443016052246100,228.6623992919922000,189.6855010986328000,17.3954601287841800,32.0872917175293000,50,99,57,78,51,1863,2147484169,2147766244,2147559314,2147794358,2147311716,2147476580,2147709165,2148244498,2333,7,13,7848
1350833249,5803,474.3399963378906000,17.4953002929687500,36.4635009765625000,230.0072937011718800,186.5464019775390600,17.4909706115722660,31.9772605895996100,50,98,56,79,51,1866,2147486226,2147765824,2147560484,2147793874,2147316352,2147478656,2147707730,2148241078,2492,7,13,64619
1350833376,5804,463.5299987792969000,17.5524997711181640,36.4748992919921900,230.8748016357422000,184.4158935546875000,17.5557994842529300,31.9055500030517580,50,99,57,78,51,1868,2147487826,2147764909,2147560201,2147792640,2147316726,2147479158,2147711707,2148241974,3153,7,13,52523
1350833505,5802,452.9500122070312500,17.6457996368408200,36.4915008544921900,231.9136047363281200,181.5874023437500000,17.6418800354003900,31.8159103393554700,50,99,58,79,51,1870,2147485878,2147765705,2147557056,2147794075,2147317933,2147479003,2147708973,2148245348,2172,7,13,26059
1350833632,5801,442.8200073242187500,17.7180004119873050,36.5050010681152340,232.9938964843750000,179.2691040039062500,17.7124404907226560,31.7316207885742200,50,99,57,78,51,1873,2147487652,2147764077,2147557970,2147791890,2147316690,2147483949,2147705755,2148244754,2245,7,13,3348
1350833771,5805,431.8599853515625000,17.7917003631591800,36.5187988281250000,234.3818969726562500,176.6900024414062500,17.7909507751464840,31.6290798187255860,50,98,58,78,51,1875,2147488164,2147764818,2147560265,2147792557,2147319533,2147473563,2147706294,2148244598,2419,7,13,3513
1350833908,5802,419.2200012207031000,17.8854999542236330,36.5363998413085940,235.8560028076172000,173.6425933837890600,17.8837203979492200,31.5170993804931640,50,101,58,78,51,1871,2147489929,2147765696,2147556891,2147791716,2147307904,2147478701,2147705819,2148243044,2315,7,13,52109
1350834023,5803,407.2000122070312500,17.9304008483886720,36.5437011718750000,236.4138031005859400,172.1414031982422000,17.9294204711914060,31.4699306488037100,49,99,57,78,51,1874,2147487762,2147760292,2147557174,2147791149,2147305700,2147475474,2147705444,2148243940,1427,7,12,55122
1350834159,5802,393.4100036621094000,17.9981994628906250,36.5525016784668000,236.0971984863281200,169.9226989746093800,17.9969806671142580,31.4552898406982420,50,100,56,80,53,1876,2147490048,2147762852,2147558674,2147790034,2147316507,2147476690,2147705910,2148242880,1216,7,13,59293
1350834281,5804,382.6900024414062500,18.0265998840332030,36.5569992065429700,235.7942047119140600,168.9980926513672000,18.0251407623291000,31.4574394226074220,50,101,57,78,51,1876,2147488749,2147766381,2147556580,2147787849,2147313636,2147484306,2147708681,2148246052,1267,7,13,10178
1350834408,5803,371.7500000000000000,18.0820999145507800,36.5637016296386700,235.0399017333984400,167.1887969970703000,18.0802402496337900,31.4692707061767580,50,100,57,77,51,1877,2147493705,2147767131,2147558500,2147790354,2147305325,2147481645,2147709421,2148238902,1324,7,13,36450
1350834537,5802,360.4599914550781000,18.1312999725341800,36.5699005126953100,234.6894073486328000,165.4895935058593800,18.1319904327392580,31.4635200500488280,49,101,57,77,52,1879,2147490825,2147763373,2147557248,2147792082,2147306112,2147475574,2147706569,2148242130,1230,7,13,33481
1350834664,5801,349.4100036621094000,18.1891002655029300,36.5777015686035160,234.5243072509765600,163.7440032958984400,18.1851596832275400,31.4477291107177730,50,101,56,79,52,1879,2147489801,2147764589,2147560777,2147792018,2147309019,2147480548,2147712402,2148244470,596,7,12,35265
1350834793,5804,338.1400146484375000,18.2318000793457030,36.5812988281250000,233.8912048339843800,162.2062988281250000,18.2320003509521500,31.4577293395996100,50,101,57,79,51,1882,2147489545,2147766409,2147562002,2147792064,2147310902,2147480356,2147704356,2148240329,395,7,12,63393
1350834920,5802,327.0499877929687500,18.2786998748779300,36.5847015380859400,232.4080047607422000,160.5641937255859400,18.2820301055908200,31.5073795318603500,50,101,56,78,52,1882,2147491318,2147763712,2147561481,2147787766,2147319542,2147478720,2147707885,2148243684,365,7,13,33863
1350835047,5803,316.1400146484375000,18.3530998229980470,36.5923995971679700,232.2695007324218800,158.3473052978515600,18.3495807647705080,31.4845008850097660,50,101,57,79,51,1884,2147486080,2147769581,2147564480,2147791533,2147315053,2147482267,2147709760,2148239323,3394,7,12,26669
1350835176,5803,305.3500061035156000,18.4118995666503900,36.5946006774902340,231.3672943115234400,156.1790924072265600,18.4156494140625000,31.4992008209228500,50,100,57,79,52,1888,2147491126,2147764251,2147568859,2147788489,2147311424,2147485970,2147708891,2148239049,3290,7,12,2109
1350835315,5804,294.2399902343750000,18.5146999359130860,36.6043014526367200,229.8421936035156200,153.0532989501953000,18.5109100341796880,31.5319194793701170,50,100,58,79,52,1888,2147491602,2147765019,2147561837,2147788845,2147305965,2147486189,2147707190,2148242944,2937,7,12,43817
1350835456,5803,283.2999877929687500,18.6030998229980470,36.6091995239257800,228.4183959960937500,150.1788940429687500,18.5985298156738280,31.5638294219970700,50,99,58,79,51,1889,2147491172,2147765842,2147573421,2147786752,2147307922,2147487542,2147716251,2148239890,2474,7,12,21733
1350835595,5801,273.1799926757812500,18.7101001739501950,36.6110000610351560,227.2127075195312500,146.6602935791015600,18.7058200836181640,31.5763893127441400,50,99,57,78,52,1889,2147493165,2147767899,2147568978,2147790473,2147312100,2147480841,2147712841,2148238171,1763,7,12,3766
1350835776,5804,259.0299987792969000,18.8087005615234380,36.6052017211914060,229.3466033935547000,143.3722991943359400,18.8060894012451170,31.4267807006835940,49,100,57,78,52,1889,2147493942,2147769590,2147570066,2147788992,2147304530,2147485312,2147710363,2148240393,2518,7,12,9413
1350835891,5805,248.3500061035156200,18.9340000152587900,36.6011009216308600,231.3961944580078000,139.2205047607422000,18.9327392578125000,31.2711696624755860,50,99,56,77,50,1888,2147493056,2147777545,2147620699,2147788397,2147306194,2147495817,2147738102,2148239780,2426,7,12,42396
1350836020,5803,236.8300018310547000,19.0767002105712900,36.5992012023925800,234.6421051025390600,134.4839935302734400,19.0772800445556640,31.0519409179687500,50,99,57,78,51,1891,2147492288,2147772900,2147585005,2147789769,2147306578,2147489947,2147716699,2148240246,1572,7,12,40408
1350836135,5803,226.7500000000000000,19.1657009124755860,36.5946998596191400,238.1533966064453000,131.8032989501953000,19.1591091156005860,30.8502407073974600,50,100,57,78,52,1891,2147496658,2147773440,2147604041,2147789065,2147304137,2147492123,2147728603,2148236845,1440,7,12,1293
1350836262,5803,215.7899932861328000,19.2168006896972660,36.5755004882812500,244.3560028076172000,129.9064941406250000,19.2170200347900400,30.5391597747802730,50,99,58,78,51,1891,2147499364,2147807552,2147703305,2147787254,2147305993,2147513005,2147788361,2148243419,862,7,12,29192
1350836391,5804,204.7100067138672000,19.3024997711181640,36.5780982971191400,248.7507019042968800,127.0070037841796900,19.3055591583251950,30.3039302825927730,50,101,57,77,51,1891,2147502390,2147823222,2147745051,2147786989,2147300077,2147524297,2147810358,2148242806,354,7,12,32369
1350836470,5804,197.7899932861328000,19.3402996063232420,36.5820007324218750,250.1631927490234400,125.9720993041992200,19.3371696472167970,30.2277297973632800,50,101,57,79,52,1892,2147502857,2147837101,2147782774,2147788461,2147315017,2147534656,2147832905,2148242468,337,8,12,3435
1350836525,5804,192.9400024414062500,19.3644008636474600,36.5844001770019500,250.6708984375000000,125.1817016601562500,19.3613090515136720,30.1952705383300780,50,101,56,78,51,1892,2147504128,2147850605,2147821677,2147789531,2147320722,2147540251,2147853220,2148244397,359,7,12,18226
1350836580,5803,188.1900024414062500,19.3794002532959000,36.5830001831054700,250.2617034912109400,124.5906982421875000,19.3793601989746100,30.2055492401123050,50,102,58,78,51,1888,2147504822,2147866898,2147860781,2147787510,2147321444,2147552539,2147877348,2148245760,3481,7,12,24088
1350836656,5804,182.0899963378906200,19.4286003112792970,36.5821990966796900,249.4376068115234400,123.0789031982421900,19.4255504608154300,30.2223892211914060,51,103,57,79,51,1889,2147513344,2147889792,2147928146,2147787547,2147322816,2147568201,2147908288,2148248795,3487,7,12,20628
1350836711,5803,178.1000061035156200,19.4412994384765620,36.5836982727050800,249.0072021484375000,122.5544967651367200,19.4415702819824220,30.2344608306884770,51,102,57,79,51,1889,2147516032,2147906761,2147973531,2147788297,2147318784,2147576832,2147936521,2148251072,3283,7,12,9641
1350836766,5805,174.2100067138672000,19.4682006835937500,36.5853004455566400,248.4967041015625000,121.6250991821289000,19.4699592590332030,30.2451801300048830,51,106,57,78,51,1888,2147518400,2147927350,2148010624,2147785261,2147319405,2147586029,2147951652,2148252790,2941,7,12,54218
1350836833,5802,169.5399932861328000,19.5816993713378900,36.6035995483398440,245.7368927001953000,118.2092971801757800,19.5743503570556640,30.3239707946777340,51,101,57,78,51,1892,2147522706,2147925476,2147989430,2147785728,2147317531,2147584265,2147954395,2148250532,3087,7,13,37816
1350836888,5801,165.8999938964843800,19.6466007232666000,36.6132011413574200,244.7093048095703000,116.0037994384765600,19.6417598724365230,30.3418102264404300,51,102,58,78,50,1890,2147526235,2147935954,2148004077,2147787264,2147323931,2147589641,2147943588,2148251081,3070,7,12,50599
1350836967,5803,161.1900024414062500,19.7378005981445300,36.6228981018066400,243.0592956542968800,112.5991973876953100,19.7458591461181640,30.3724403381347660,51,102,56,79,51,1892,2147538221,2148009636,2148183698,2147788964,2147334281,2147630976,2148042130,2148254884,201,7,12,59913
1350837046,5804,157.3399963378906200,19.8827991485595700,36.6408996582031250,239.8771972656250000,108.4796981811523400,19.8718605041503900,30.4646492004394530,50,104,58,78,52,1892,2147559625,2148078866,2148366235,2147787995,2147342802,2147674541,2148139072,2148262445,543,7,12,38482
1350837125,5801,153.6600036621093800,19.9430007934570300,36.6479988098144500,235.3607940673828000,106.3920974731445300,19.9357395172119140,30.6484203338623050,51,102,57,78,52,1894,2147564242,2148113097,2148429915,2147787355,2147336521,2147689152,2148171227,2148264045,3278,7,12,24486
1350837216,5802,149.4700012207031200,20.0606994628906250,36.6509017944335940,235.2144012451172000,102.5439987182617200,20.0535106658935550,30.6049900054931640,51,101,58,78,52,1892,2147590857,2148179675,2148565302,2147789632,2147352448,2147724845,2148239808,2148270528,2375,7,12,27585
1350837297,5805,145.6600036621093800,20.0993995666503900,36.6553993225097660,234.7048950195312500,101.0905990600586000,20.0980091094970700,30.6100502014160160,51,105,57,80,51,1893,2147580480,2148103360,2148334244,2147788288,2147352009,2147685156,2148121024,2148262747,1565,7,12,29889
1350837388,5804,141.2200012207031200,20.1996994018554700,36.6539993286132800,236.2160949707031200,98.0120010375976600,20.1922798156738280,30.4988803863525400,52,102,57,79,51,1894,2147640576,2148322578,2148842587,2147791232,2147371154,2147805430,2148385901,2148278966,1026,7,13,37038
1350837467,5803,137.5500030517578000,20.2975006103515620,36.6596984863281250,237.0903930664062500,94.9058837890625000,20.2874202728271500,30.4175300598144530,53,105,57,78,51,1897,2147674944,2148415625,2149021577,2147790939,2147390774,2147855186,2148470656,2148286948,954,7,13,48064
1350837558,5804,133.6499938964843800,20.3724002838134770,36.6693992614746100,238.1318054199218800,92.4839782714843800,20.3616294860839840,30.3375892639160160,54,105,57,80,52,1897,2147722962,2148533449,2149245165,2147793216,2147411392,2147922212,2148586514,2148295277,697,7,13,58849
1350837651,5806,129.8999938964843800,20.4752998352050780,36.6856002807617200,239.2528991699218800,89.2324066162109400,20.4612998962402340,30.2438793182373050,58,109,56,80,51,1899,2147780141,2148664594,2149493366,2147795629,2147428013,2147987474,2148702948,2148301824,378,7,12,21365
1350837754,5803,126.0299987792968800,20.6140995025634770,36.7004013061523440,237.5572967529297000,84.6721267700195300,20.6011390686035160,30.2633705139160160,60,109,58,80,51,1900,2147848466,2148822610,2149763611,2147799606,2147458523,2148069092,2148835355,2148309750,226,7,12,977
1350837881,5807,121.8499984741211000,20.7285003662109380,36.7027015686035160,236.4380035400390600,80.9153366088867200,20.7164001464843750,30.2671108245849600,62,114,57,78,51,1899,2147947958,2149041106,2150152164,2147806080,2147498368,2148178377,2149012187,2148323565,18,7,12,26749
1350837993,5803,117.7200012207031200,20.8759994506835940,36.7089996337890600,235.7799987792968800,76.2585830688476600,20.8593406677246100,30.2375507354736330,61,113,57,79,51,1899,2148079972,2149314240,2150629293,2147813714,2147550948,2148309458,2149232155,2148340937,3582,7,13,49671
1350838096,5802,113.8099975585937500,21.0428009033203120,36.7211990356445300,233.4373931884765600,70.6925964355468800,21.0303096771240230,30.2758808135986330,63,113,58,82,51,1900,2148218816,2149571373,2151054902,2147820845,2147607625,2148432996,2149416073,2148356891,3230,7,13,5804
1350838235,5806,110.2900009155273400,21.2364997863769530,36.7210006713867200,234.6345062255859400,64.7508163452148400,21.2129592895507800,30.1431808471679700,67,114,56,79,50,1901,2148381412,2149846144,2151509046,2147833389,2147672146,2148559908,2149628013,2148372854,647,8,12,57436
1350838374,5801,105.6900024414062500,21.4738998413085940,36.7164001464843750,241.6551055908203000,56.7435493469238300,21.4593296051025400,29.7179603576660160,66,117,58,80,50,1897,2148686363,2150355648,2152336384,2147851931,2147786724,2148787565,2149985682,2148402413,1573,7,12,62069
1350838465,5800,101.9199981689453100,21.6588001251220700,36.7251014709472660,243.8804931640625000,50.1376419067382800,21.6627998352050780,29.5341205596923830,66,117,58,79,50,1897,2148995721,2150844507,2153120219,2147875401,2147902884,2149003794,2150325988,2148436726,1823,7,12,53838
1350838544,5802,98.9400024414062500,21.9018993377685550,36.7490005493164060,239.9490051269531200,43.8657112121582000,21.8561592102050780,29.6316204071044920,71,117,57,80,51,1898,2149275840,2151283428,2153788900,2147900397,2148016694,2149202980,2150606034,2148461686,2233,7,12,61290
1350838623,5804,95.6900024414062500,22.0041007995605470,36.7540016174316400,233.0252990722656200,39.4233512878418000,21.9932308197021500,29.8944091796875000,74,124,58,82,51,1898,2149747821,2152013586,2154901750,2147934400,2148189741,2149484873,2150998427,2148501092,2971,7,12,64490
1350838678,5802,92.7200012207031200,22.1746006011962900,36.7458992004394500,229.4105987548828000,34.1749305725097660,22.1552906036376950,29.9985008239746100,80,129,56,83,51,1896,2150254610,2152783515,2156057526,2147973293,2148368237,2149773357,2151431926,2148544521,2892,7,12,31786
1350838733,5804,90.0599975585937500,22.2238998413085940,36.7405014038085940,228.8522033691406200,32.1644096374511700,22.2174091339111330,29.9994697570800780,82,131,58,82,51,1895,2150771894,2153551396,2157152740,2148015680,2148542080,2150050002,2151831058,2148585682,2808,6,12,13427
1350838788,5804,87.6399993896484400,22.2877998352050780,36.7307014465332000,230.0482940673828000,30.2401409149169920,22.2768802642822270,29.9180908203125000,84,126,57,81,51,1892,2151354038,2154386669,2158367744,2148060352,2148749888,2150359981,2152317257,2148640301,2191,7,12,26348
1350838843,5804,85.4300003051757800,22.3139991760253900,36.7300987243652340,231.5693969726562500,29.2078800201416000,22.3087902069091800,29.8329105377197270,85,132,57,82,50,1893,2151998235,2155304201,2159684370,2148121782,2148987675,2150710390,2152841810,2148697920,1853,7,12,16851
1350838898,5805,83.2900009155273400,22.3999996185302730,36.7262001037597660,232.0169982910156200,26.1136608123779300,22.4044704437255860,29.7723503112792970,84,129,57,81,51,1892,2152735771,2156340580,2161131209,2148185170,2149229878,2151066084,2153330633,2148759954,1798,8,12,30163
1350838955,5804,81.3600006103515600,22.5370006561279300,36.7165985107421900,232.5608062744140600,22.9134292602539060,22.5034904479980470,29.7062797546386720,85,130,58,81,51,1893,2153404854,2157239652,2162354925,2148244662,2149482614,2151427163,2153857526,2148815497,1465,7,12,52643
1350839010,5803,80.0999984741211000,22.5615005493164060,36.7148017883300800,234.1923980712890600,21.2425003051757800,22.5552005767822270,29.6091709136962900,84,130,58,81,52,1894,2153935387,2157947072,2163297024,2148291328,2149653238,2151654025,2154175981,2148854482,1496,7,12,11479
1350839089,5803,78.4800033569336000,22.6741008758544920,36.7005996704101560,235.6248016357422000,17.8716392517089840,22.6595897674560550,29.5003299713134770,85,132,56,82,52,1893,2154831094,2159146413,2164911552,2148378715,2149935744,2152032292,2154681481,2148922395,1545,7,12,50503
1350839144,5804,77.3899993896484400,22.7623004913330080,36.7060012817382800,236.2516021728515600,15.2734899520874020,22.7400798797607420,29.4386291503906250,88,132,58,84,50,1893,2155285129,2159729097,2165637778,2148410660,2150126948,2152299885,2155027584,2148965211,1039,8,12,46142
1350839282,5804,74.5400009155273400,22.8211994171142580,36.6789016723632800,237.1293029785156200,13.1447601318359380,22.8060607910156250,29.3718605041503900,88,127,57,84,50,1901,2157253321,2162305892,2168877001,2148586368,2150831469,2153245467,2156211483,2149109924,660,8,12,35746
1350839337,5805,72.3700027465820300,22.9521007537841800,36.6697998046875000,241.9402008056640600,8.2653341293334960,22.9573898315429700,29.0937004089355470,84,131,58,82,50,1898,2158918436,2164364717,2171245321,2148744713,2151405458,2153980187,2157120384,2149225435,329,7,12,8125
1350839392,5804,70.4700012207031200,23.1259002685546880,36.6618003845214840,241.3973999023437500,3.3697841167449950,23.1093502044677730,29.0568103790283200,89,133,58,84,50,1896,2160855469,2166792841,2174061494,2148908534,2151969993,2154665828,2157947904,2149335753,3507,7,12,42920
1350839447,5804,69.3700027465820300,23.2129993438720700,36.6399002075195300,240.7606964111328000,1.4340070486068726,23.1694793701171880,29.0609703063964840,94,145,58,85,52,1891,2161878747,2167998116,2175268827,2148981056,2152279963,2155046125,2158409206,2149397833,3518,8,12,65348
1350839670,5803,67.2099990844726600,23.6390991210937500,36.6339988708496100,238.1732025146484400,-12.6442604064941400,23.6074199676513670,29.0015296936035160,94,140,58,84,51,1893,2166849718,2173907355,2181034907,2149260626,2153612489,2156632758,2160363401,2149662994,3467,7,12,36138
1350839749,5800,65.4599990844726600,23.8145008087158200,36.6217002868652340,238.5294952392578000,-18.5066699981689450,23.7901401519775400,28.9123191833496100,83,137,59,85,52,1898,2169294226,2176615579,2183558454,2149451200,2154397659,2157523776,2161379419,2149807652,3570,8,12,1826
1350839900,5805,63.2999992370605500,24.0142002105712900,36.6129989624023440,238.2949066162109400,-25.4836502075195300,24.0078697204589840,28.8363304138183600,81,132,57,83,51,1896,2174453888,2182330697,2189253540,2149853174,2156192630,2159680164,2163792219,2150160457,746,8,12,57123
1350839991,5805,61.3600006103515600,24.2530994415283200,36.5704002380371100,242.6979980468750000,-32.8525390625000000,24.2381801605224600,28.5495395660400400,77,130,58,84,50,1896,2178873124,2186989229,2193629888,2150160905,2157915062,2161603849,2165688201,2150428726,990,7,12,28328
1350840190,5805,59.1899986267089840,24.5478992462158200,36.5383987426757800,249.1305999755859400,-42.6538696289062500,24.5450706481933600,28.1517200469970700,71,131,59,84,50,1896,2183720082,2191999990,2198271872,2150623744,2160202505,2164144640,2168075264,2150777956,491,7,12,26379
1350840317,5805,57.9799995422363300,24.8638992309570300,36.5009994506835940,248.4223937988281200,-52.0612182617187500,24.8402404785156250,28.0665893554687500,68,131,58,84,50,1895,2185707017,2193548068,2198855661,2150703378,2161398774,2165387190,2169083309,2150888164,3485,7,12,17055
1350840528,5803,55.0900001525878900,25.2033996582031250,36.4677009582519500,243.9322967529297000,-63.0612106323242200,25.1861801147460940,28.1243991851806640,69,136,57,85,50,1891,2194096795,2202158400,2207488082,2151747584,2165118427,2169476269,2173431195,2151535296,2449,7,12,55796
1350841467,5802,53.8699989318847660,26.1161003112792970,36.2398986816406250,239.4317932128906200,-92.5719985961914000,26.1187705993652340,27.9594097137451170,61,120,57,83,50,1890,2198168841,2205786898,2210004205,2151948845,2172318701,2176340196,2178207122,2152008073,1276,8,12,24997
1350841565,5801,51.7200012207031250,26.1401004791259770,36.2443008422851560,239.4806976318359400,-93.3608474731445300,26.1438007354736330,27.9477405548095700,60,121,57,84,48,1890,2201080557,2208908562,2213187702,2152506386,2177826102,2181671332,2182115428,2152496100,719,8,11,36992
1350841637,5806,49.6800003051757800,26.1404991149902340,36.2448997497558600,239.4010009765625000,-93.5015792846679700,26.1482601165771500,27.9495601654052730,59,122,57,82,48,1888,2204724388,2212889664,2217338870,2153268233,2182643108,2186179126,2185498102,2152935990,394,8,12,231
1350841717,5804,47.0099983215332000,26.1418991088867200,36.2438011169433600,239.4848937988281200,-93.5057067871093800,26.1483898162841800,27.9458999633789060,58,120,57,84,50,1891,2212358774,2221169444,2226547172,2154880914,2190184301,2193491766,2191498870,2153756434,3566,8,12,62011
1350841750,5805,45.3899993896484400,26.1434993743896500,36.2425994873046900,239.4035949707031200,-93.5308914184570300,26.1491909027099600,27.9489707946777340,57,122,57,83,49,1890,2215013558,2223345746,2228603894,2155800146,2194698276,2197773906,2194823085,2154267867,3321,8,11,6165
1350841783,5801,43.6800003051757800,26.1410999298095700,36.2415008544921900,239.6029968261718800,-93.4579162597656200,26.1468791961669920,27.9412498474121100,57,121,56,84,48,1889,2219831478,2228454976,2234312091,2156969289,2200056228,2203033581,2199284635,2154908745,3005,8,12,29369
1350841828,5805,41.2900009155273440,26.1014995574951170,36.2145004272460940,239.7590026855468800,-91.9124832153320300,26.0978603363037100,27.9532203674316400,58,121,58,84,49,1885,2225404946,2233866011,2240043510,2158746925,2207963556,2210546916,2205649965,2155958427,2642,8,11,2928
1350841861,5803,39.5800018310546900,26.0335006713867200,36.1697998046875000,240.1649017333984400,-89.7106704711914000,26.0280494689941400,27.9624595642089840,59,119,57,83,49,1880,2232263908,2241374381,2248566208,2160870089,2213693165,2216023972,2210185078,2156781229,2433,8,12,36861
1350841906,5805,37.3300018310546900,25.9799003601074220,36.1386985778808600,240.1826019287109400,-88.4411010742187500,25.9878196716308600,27.9770298004150400,58,119,57,82,48,1881,2238271168,2247176557,2254505243,2162942208,2222264118,2224297060,2217388187,2158029202,2095,7,11,13614
1350841939,5802,35.7200012207031250,25.9545001983642580,36.1254005432128900,240.2160034179687500,-87.7143096923828100,25.9647903442382800,27.9845409393310550,56,120,57,83,49,1881,2244576329,2254125714,2262854774,2165936374,2228060900,2229703113,2221882029,2159077321,1945,8,11,52926